QPF
0.03 0.01 0.01 0.02 0.03 0.04 0.04 0.02 0.01 0.01 0.00 0.00 0.01 0.36 0.54 0.40 0.49 0.54 0.52 0.18 0.12 0.13 0.10 0.08 0.05 0.02 0.02 0.01 0.00 0.00 0.00 0.00 0.00 0.00 0.00 0.00 0.00 0.00 0.00 0.00 0.01 0.01 0.02
0.04 0.04 0.06 0.12 0.16 0.17 0.15 0.11 0.05 0.03 0.01 0.00 0.00 0.23 1.17 0.99 0.61 0.51 0.54 0.21 0.12 0.11 0.10 0.09 0.06 0.03 0.01 0.01 0.01 0.00 0.00 0.00 0.00 0.00 0.00 0.00 0.00 0.01 0.01 0.01 0.01 0.01 0.00
0.07 0.09 0.12 0.16 0.17 0.17 0.21 0.19 0.09 0.14 0.08 0.02 0.11 0.47 0.83 1.30 0.89 0.65 0.55 0.38 0.20 0.20 0.18 0.10 0.05 0.03 0.03 0.01 0.01 0.00 0.00 0.00 0.01 0.01 0.00 0.00 0.00 0.00 0.00 0.00 0.00 0.00 0.00
0.06 0.12 0.20 0.25 0.27 0.22 0.19 0.23 0.16 0.07 0.04 0.01 0.09 0.52 0.77 0.71 0.97 0.82 0.67 0.39 0.12 0.14 0.19 0.24 0.17 0.08 0.05 0.04 0.02 0.01 0.01 0.01 0.01 0.01 0.01 0.00 0.00 0.00 0.00 0.00 0.00 0.00 0.00
0.01 0.05 0.09 0.14 0.34 0.29 0.19 0.21 0.13 0.05 0.01 0.02 0.06 0.32 0.85 0.78 0.54 0.68 0.78 0.42 0.16 0.06 0.06 0.08 0.15 0.16 0.11 0.06 0.02 0.01 0.01 0.02 0.03 0.01 0.01 0.00 0.00 0.00 0.00 0.00 0.00 0.00 0.00
0.00 0.01 0.03 0.05 0.15 0.16 0.17 0.12 0.07 0.03 0.05 0.09 0.11 0.25 0.49 1.01 0.77 0.53 0.49 0.47 0.32 0.09 0.04 0.04 0.05 0.11 0.21 0.17 0.09 0.01 0.00 0.00 0.01 0.01 0.00 0.00 0.00 0.00 0.00 0.00 0.00 0.00 0.00
0.00 0.00 0.00 0.00 0.01 0.00 0.01 0.02 0.02 0.03 0.06 0.12 0.19 0.23 0.32 0.56 0.83 0.77 0.60 0.45 0.35 0.15 0.03 0.01 0.01 0.01 0.03 0.05 0.01 0.00 0.00 0.00 0.00 0.00 0.00 0.00 0.00 0.00 0.00 0.01 0.00 0.01 0.01
0.00 0.00 0.00 0.00 0.00 0.00 0.00 0.00 0.00 0.00 0.01 0.02 0.07 0.12 0.15 0.23 0.32 0.48 0.57 0.48 0.36 0.17 0.05 0.02 0.01 0.00 0.00 0.00 0.00 0.00 0.00 0.00 0.00 0.00 0.00 0.00 0.00 0.01 0.01 0.01 0.01 0.00 0.00
0.00 0.00 0.00 0.01 0.00 0.00 0.00 0.00 0.00 0.00 0.00 0.00 0.00 0.01 0.03 0.06 0.09 0.11 0.11 0.15 0.16 0.12 0.07 0.04 0.01 0.01 0.00 0.00 0.00 0.00 0.00 0.00 0.00 0.00 0.00 0.00 0.00 0.01 0.02 0.03 0.03 0.02 0.01
0.01 0.00 0.00 0.01 0.00 0.00 0.00 0.00 0.00 0.00 0.00 0.00 0.00 0.00 0.00 0.01 0.01 0.01 0.01 0.01 0.01 0.02 0.01 0.01 0.01 0.00 0.00 0.00 0.00 0.00 0.00 0.00 0.00 0.00 0.00 0.00 0.00 0.01 0.03 0.04 0.02 0.03 0.02
0.00 0.00 0.00 0.00 0.01 0.00 0.00 0.00 0.00 0.00 0.00 0.00 0.00 0.00 0.00 0.00 0.00 0.00 0.00 0.00 0.00 0.00 0.00 0.00 0.00 0.00 0.00 0.00 0.00 0.00 0.00 0.00 0.00 0.00 0.00 0.00 0.01 0.03 0.03 0.03 0.04 0.04 0.02
0.00 0.00 0.00 0.00 0.00 0.01 0.00 0.00 0.00 0.00 0.00 0.00 0.00 0.00 0.00 0.00 0.00 0.00 0.00 0.00 0.00 0.00 0.01 0.00 0.00 0.00 0.00 0.00 0.00 0.00 0.00 0.00 0.00 0.00 0.01 0.00 0.00 0.00 0.00 0.02 0.04 0.09 0.06
0.00 0.00 0.00 0.00 0.00 0.01 0.01 0.00 0.00 0.00 0.00 0.00 0.00 0.00 0.00 0.00 0.00 0.00 0.00 0.00 0.00 0.00 0.00 0.00 0.00 0.00 0.00 0.00 0.00 0.00 0.00 0.00 0.00 0.00 0.01 0.01 0.00 0.01 0.02 0.02 0.04 0.06 0.06
0.00 0.00 0.00 0.00 0.00 0.00 0.01 0.00 0.00 0.00 0.00 0.00 0.00 0.00 0.00 0.00 0.00 0.00 0.00 0.00 0.00 0.00 0.00 0.00 0.00 0.00 0.00 0.00 0.00 0.00 0.00 0.00 0.00 0.00 0.00 0.00 0.00 0.00 0.01 0.02 0.03 0.05 0.06
0.00 0.00 0.00 0.00 0.00 0.00 0.00 0.03 0.01 0.00 0.00 0.00 0.01 0.01 0.01 0.02 0.01 0.00 0.00 0.00 0.00 0.00 0.00 0.00 0.00 0.00 0.00 0.00 0.00 0.00 0.00 0.00 0.00 0.00 0.00 0.00 0.00 0.00 0.00 0.00 0.00 0.01 0.01
0.00 0.00 0.00 0.00 0.00 0.00 0.00 0.00 0.01 0.00 0.00 0.00 0.00 0.00 0.00 0.00 0.00 0.00 0.00 0.00 0.00 0.00 0.00 0.00 0.00 0.00 0.00 0.00 0.00 0.00 0.00 0.00 0.00 0.00 0.00 0.00 0.00 0.00 0.00 0.00 0.00 0.00 0.00
0.00 0.00 0.00 0.00 0.00 0.00 0.00 0.00 0.00 0.00 0.00 0.00 0.00 0.00 0.00 0.00 0.00 0.00 0.00 0.00 0.00 0.00 0.00 0.00 0.00 0.00 0.00 0.00 0.00 0.00 0.01 0.00 0.00 0.00 0.00 0.00 0.00 0.00 0.00 0.00 0.00 0.00 0.01
0.00 0.00 0.00 0.00 0.00 0.00 0.00 0.00 0.00 0.00 0.00 0.00 0.00 0.00 0.00 0.00 0.00 0.00 0.00 0.00 0.00 0.00 0.00 0.00 0.00 0.00 0.00 0.00 0.00 0.00 0.00 0.00 0.00 0.00 0.00 0.00 0.00 0.00 0.00 0.00 0.01 0.02 0.03
0.00 0.00 0.00 0.00 0.00 0.00 0.00 0.00 0.00 0.00 0.00 0.00 0.00 0.00 0.00 0.00 0.00 0.00 0.00 0.00 0.00 0.00 0.00 0.00 0.00 0.00 0.00 0.00 0.00 0.00 0.00 0.00 0.00 0.00 0.00 0.01 0.01 0.00 0.01 0.01 0.02 0.03 0.04
0.00 0.00 0.00 0.00 0.00 0.00 0.00 0.00 0.00 0.00 0.00 0.00 0.00 0.00 0.00 0.00 0.00 0.00 0.00 0.00 0.00 0.00 0.00 0.00 0.00 0.00 0.00 0.00 0.00 0.00 0.00 0.00 0.00 0.01 0.01 0.01 0.01 0.01 0.01 0.02 0.03 0.04 0.06
0.00 0.00 0.00 0.00 0.00 0.00 0.00 0.00 0.00 0.00 0.00 0.00 0.00 0.00 0.00 0.00 0.00 0.00 0.00 0.00 0.00 0.00 0.00 0.00 0.00 0.00 0.00 0.00 0.00 0.00 0.00 0.00 0.00 0.00 0.01 0.01 0.01 0.01 0.02 0.03 0.03 0.04 0.06
0.00 0.00 0.00 0.00 0.00 0.00 0.00 0.00 0.00 0.00 0.00 0.00 0.00 0.00 0.00 0.00 0.00 0.00 0.00 0.00 0.00 0.00 0.00 0.00 0.00 0.00 0.00 0.00 0.00 0.00 0.00 0.00 0.00 0.01 0.01 0.01 0.01 0.01 0.02 0.03 0.04 0.06 0.07
0.00 0.00 0.00 0.00 0.00 0.00 0.00 0.00 0.00 0.00 0.00 0.00 0.00 0.00 0.00 0.00 0.00 0.00 0.00 0.00 0.00 0.00 0.00 0.00 0.00 0.00 0.00 0.00 0.00 0.00 0.01 0.01 0.01 0.01 0.01 0.01 0.01 0.01 0.02 0.03 0.04 0.06 0.08
0.00 0.00 0.00 0.00 0.00 0.00 0.00 0.00 0.00 0.00 0.00 0.00 0.00 0.00 0.00 0.00 0.00 0.00 0.00 0.00 0.00 0.00 0.00 0.00 0.00 0.00 0.00 0.00 0.00 0.00 0.00 0.00 0.00 0.00 0.00 0.01 0.01 0.02 0.02 0.02 0.04 0.05 0.07
0.00 0.00 0.00 0.00 0.00 0.00 0.00 0.00 0.00 0.00 0.00 0.00 0.00 0.00 0.00 0.00 0.00 0.00 0.00 0.00 0.00 0.00 0.00 0.00 0.00 0.00 0.00 0.00 0.00 0.00 0.00 0.00 0.00 0.00 0.00 0.00 0.00 0.01 0.02 0.02 0.03 0.04 0.05
0.00 0.00 0.00 0.00 0.00 0.00 0.00 0.00 0.00 0.00 0.00 0.00 0.00 0.00 0.00 0.00 0.00 0.00 0.00 0.00 0.00 0.00 0.00 0.00 0.00 0.00 0.00 0.00 0.00 0.00 0.00 0.00 0.00 0.00 0.00 0.00 0.00 0.00 0.00 0.01 0.02 0.03 0.04
MSLP
1020.30 1019.10 1017.78 1016.22 1014.67 1013.19 1012.27 1011.00 1009.00 1007.58 1005.66 1004.98 1003.42 1002.55 1001.89 1000.10 1001.45 1003.84 1002.22 1000.15 1002.01 1002.40 1003.20 1003.12 1004.45 1004.94 1006.05 1006.55 1006.82 1007.43 1007.90 1008.73 1009.04 1008.33 1008.50 1008.26 1008.46 1008.60 1008.69 1008.94 1009.07 1009.37 1009.45
1020.47 1019.27 1017.90 1016.76 1015.31 1014.11 1013.04 1012.00 1010.84 1009.23 1007.14 1005.99 1004.44 1003.77 1002.63 1001.71 1001.57 1004.26 1003.63 1002.39 1001.50 1002.00 1002.79 1003.51 1004.37 1005.06 1005.93 1006.21 1006.71 1007.09 1007.35 1007.82 1008.27 1007.92 1007.98 1007.96 1007.95 1008.10 1008.27 1008.60 1008.71 1008.64 1008.71
1020.42 1019.37 1018.13 1017.06 1015.90 1014.96 1014.16 1013.27 1012.12 1010.88 1008.77 1007.03 1005.63 1004.36 1004.43 1003.44 1002.87 1004.39 1004.40 1003.00 1002.45 1002.18 1002.60 1003.86 1004.86 1005.30 1006.20 1006.54 1006.58 1006.61 1006.36 1006.96 1007.20 1007.38 1007.44 1007.39 1007.39 1007.56 1008.10 1008.24 1008.18 1008.29 1008.25
1020.54 1019.54 1018.57 1017.66 1017.19 1016.37 1015.65 1014.39 1013.50 1012.06 1010.49 1007.72 1006.55 1006.17 1005.51 1005.02 1004.86 1004.04 1004.24 1007.35 1004.45 1002.67 1003.98 1004.77 1005.56 1005.83 1006.80 1007.30 1007.41 1007.11 1006.58 1006.48 1006.77 1006.52 1006.77 1006.95 1006.99 1007.05 1007.27 1007.60 1008.03 1008.13 1008.24
1021.13 1020.19 1019.30 1018.52 1018.01 1017.35 1016.38 1015.56 1013.88 1012.93 1011.54 1009.89 1008.33 1007.46 1007.22 1006.32 1006.64 1004.42 1006.26 1010.29 1006.33 1006.14 1005.61 1005.42 1005.94 1006.78 1007.22 1006.30 1008.11 1007.81 1007.56 1007.25 1007.19 1006.26 1006.12 1006.20 1006.37 1006.42 1006.53 1006.80 1006.99 1007.46 1007.69
1021.86 1020.96 1020.07 1019.14 1018.25 1017.80 1016.86 1015.95 1014.85 1013.50 1012.23 1011.23 1010.21 1009.30 1007.96 1008.24 1009.06 1007.69 1006.64 1007.29 1010.06 1008.29 1006.38 1005.48 1005.65 1005.66 1007.24 1007.80 1008.53 1009.01 1008.70 1008.02 1007.86 1007.13 1006.39 1005.49 1005.48 1005.62 1005.95 1006.25 1006.51 1007.33 1007.74
1022.49 1021.75 1020.76 1019.90 1019.13 1018.18 1017.41 1016.53 1015.46 1014.88 1013.88 1012.90 1012.46 1011.08 1009.27 1008.34 1008.06 1007.87 1008.85 1008.84 1010.58 1009.08 1009.89 1007.05 1007.38 1007.86 1008.85 1009.76 1009.85 1008.98 1008.49 1008.08 1008.00 1007.40 1006.68 1005.65 1005.06 1004.99 1004.97 1005.42 1005.70 1006.51 1006.59
1023.07 1022.33 1021.64 1020.84 1020.20 1019.44 1018.51 1018.06 1017.27 1016.53 1015.37 1014.83 1014.72 1013.05 1011.01 1010.12 1008.36 1009.47 1009.97 1010.76 1011.62 1010.13 1008.00 1007.62 1007.43 1008.54 1009.17 1010.62 1009.54 1009.29 1008.51 1007.92 1007.27 1006.80 1006.09 1005.35 1005.09 1004.74 1004.50 1004.07 1004.48 1005.43 1006.41
1023.83 1023.23 1022.51 1021.65 1021.10 1020.40 1019.63 1019.47 1018.91 1018.56 1018.24 1017.36 1016.35 1015.04 1013.37 1011.08 1010.49 1010.73 1011.39 1010.34 1008.88 1009.52 1009.88 1009.82 1009.47 1009.67 1010.05 1010.39 1009.67 1009.74 1008.97 1007.77 1006.51 1005.97 1005.17 1004.72 1004.49 1004.23 1004.02 1003.77 1004.27 1004.97 1005.95
1024.87 1024.17 1023.38 1022.57 1022.12 1021.62 1021.21 1020.84 1020.32 1019.57 1018.90 1018.27 1016.82 1014.84 1013.81 1012.94 1013.96 1013.32 1013.17 1012.74 1012.61 1012.33 1011.07 1010.58 1011.51 1010.78 1011.67 1011.22 1010.46 1009.93 1008.35 1007.57 1006.65 1005.44 1004.65 1003.86 1003.52 1003.09 1002.82 1002.92 1002.87 1003.37 1004.51
1025.76 1024.96 1024.17 1023.52 1022.89 1022.60 1022.36 1022.28 1021.51 1020.64 1019.75 1017.68 1016.89 1016.28 1015.97 1015.73 1015.10 1014.34 1013.63 1013.42 1013.98 1013.93 1013.96 1013.72 1012.42 1012.44 1011.34 1010.95 1010.48 1010.29 1009.94 1008.54 1006.78 1006.06 1005.01 1003.83 1002.99 1002.46 1002.00 1002.18 1001.99 1002.24 1002.62
1026.50 1025.72 1024.94 1024.29 1023.80 1023.40 1023.05 1022.05 1020.88 1019.34 1018.02 1017.34 1017.49 1017.22 1016.33 1015.80 1015.70 1015.58 1014.82 1015.32 1015.44 1014.95 1015.08 1014.84 1014.34 1013.76 1012.85 1012.31 1011.60 1011.28 1009.94 1008.39 1007.60 1006.71 1005.79 1004.71 1003.96 1003.59 1002.83 1002.27 1001.86 1001.95 1001.37
1027.12 1026.31 1025.58 1024.76 1024.06 1023.45 1022.86 1022.21 1021.44 1021.04 1020.89 1020.58 1020.01 1019.20 1019.30 1018.85 1018.27 1018.17 1017.82 1017.38 1017.38 1017.48 1017.00 1016.73 1015.93 1015.05 1013.76 1012.79 1011.98 1011.35 1010.57 1009.52 1008.59 1007.69 1006.71 1005.97 1005.42 1004.53 1003.50 1002.50 1001.83 1001.94 1001.68
1028.10 1027.41 1026.69 1026.02 1025.28 1024.54 1024.03 1024.19 1023.91 1022.96 1022.19 1021.46 1020.53 1021.00 1021.12 1020.73 1020.05 1019.71 1019.37 1018.90 1018.59 1018.25 1017.87 1017.26 1016.68 1015.62 1014.96 1014.09 1013.43 1012.60 1011.70 1010.45 1009.55 1009.04 1008.03 1007.15 1006.10 1004.51 1003.65 1003.03 1002.45 1002.10 1001.93
1028.60 1028.38 1027.89 1027.23 1026.66 1025.96 1025.31 1024.54 1024.25 1024.08 1023.85 1023.60 1023.05 1022.92 1022.01 1021.36 1021.41 1021.19 1020.58 1020.32 1020.38 1020.21 1019.57 1018.32 1017.35 1016.36 1015.78 1014.76 1014.25 1013.60 1012.68 1011.01 1010.87 1009.89 1008.80 1008.10 1006.70 1005.58 1004.41 1003.68 1003.37 1002.57 1002.67
1029.16 1028.81 1028.48 1028.04 1027.69 1027.27 1026.87 1026.20 1025.41 1025.19 1024.55 1023.85 1023.38 1023.04 1022.91 1022.81 1022.66 1022.00 1021.44 1021.56 1021.08 1020.63 1019.92 1019.41 1019.09 1018.53 1017.71 1017.10 1016.10 1015.13 1013.65 1012.68 1012.30 1011.15 1009.83 1008.65 1007.61 1006.69 1005.17 1004.39 1003.55 1002.77 1002.65
1029.74 1029.43 1029.17 1028.84 1028.50 1028.23 1027.77 1027.22 1026.81 1026.17 1025.85 1025.29 1024.66 1024.17 1023.82 1023.89 1023.37 1022.92 1022.66 1022.39 1021.85 1021.41 1021.26 1020.94 1020.75 1020.16 1019.47 1018.67 1017.64 1016.28 1015.62 1014.70 1013.41 1011.80 1010.96 1009.48 1008.22 1007.46 1006.39 1005.02 1004.04 1003.68 1002.82
1029.89 1029.73 1029.66 1029.50 1029.30 1029.05 1028.59 1028.31 1027.93 1027.49 1026.95 1026.64 1026.42 1026.19 1025.68 1025.31 1024.80 1024.24 1023.87 1023.44 1022.76 1022.61 1022.72 1022.47 1022.19 1021.21 1020.60 1020.11 1019.44 1018.16 1016.98 1015.50 1014.17 1012.91 1011.24 1010.40 1009.45 1008.55 1007.35 1006.26 1005.61 1005.01 1004.00
1030.22 1030.01 1029.76 1029.56 1029.33 1029.11 1028.90 1028.72 1028.46 1028.25 1028.27 1028.14 1027.66 1027.37 1027.03 1026.32 1026.15 1025.70 1025.26 1024.95 1025.06 1024.70 1024.55 1024.01 1023.63 1023.13 1022.39 1021.22 1020.24 1019.53 1018.81 1017.16 1015.42 1014.00 1012.46 1011.50 1010.62 1009.69 1008.33 1007.31 1006.89 1006.13 1005.60
1030.69 1030.47 1030.19 1029.97 1029.73 1029.45 1029.16 1029.00 1028.87 1028.78 1028.66 1028.59 1028.59 1028.38 1027.90 1027.29 1026.45 1026.13 1025.94 1025.70 1025.63 1025.51 1025.47 1025.27 1024.42 1023.97 1023.50 1022.89 1021.90 1020.96 1019.57 1018.17 1016.74 1015.52 1014.34 1012.90 1012.00 1011.01 1009.64 1008.61 1008.01 1007.79 1006.84
1030.94 1030.77 1030.61 1030.44 1030.30 1030.11 1029.96 1029.79 1029.59 1029.42 1029.28 1029.09 1028.84 1028.68 1028.41 1028.16 1028.11 1027.84 1027.53 1027.36 1027.04 1026.72 1026.30 1025.56 1025.06 1024.42 1023.78 1023.34 1022.45 1021.59 1020.45 1019.78 1018.57 1017.06 1015.23 1013.69 1012.84 1011.83 1010.44 1009.84 1009.50 1008.67 1007.67
1031.19 1031.12 1031.02 1030.99 1030.83 1030.80 1030.64 1030.49 1030.38 1030.23 1030.12 1029.88 1029.56 1029.19 1029.02 1028.92 1028.87 1028.71 1028.51 1028.25 1028.01 1027.26 1026.77 1026.40 1026.02 1025.33 1024.84 1024.26 1023.44 1022.37 1021.31 1020.26 1018.93 1017.60 1016.14 1014.82 1013.73 1012.87 1011.80 1010.80 1010.09 1009.07 1007.93
1031.47 1031.49 1031.50 1031.51 1031.41 1031.40 1031.45 1031.31 1031.23 1031.14 1031.04 1030.80 1030.49 1030.33 1030.12 1030.04 1029.78 1029.52 1029.21 1028.71 1027.99 1027.92 1027.34 1026.84 1026.50 1025.99 1025.33 1024.67 1024.00 1023.20 1022.20 1021.03 1019.91 1018.59 1017.39 1016.13 1014.88 1013.68 1012.60 1011.67 1010.77 1009.92 1009.10
1031.88 1031.96 1031.98 1032.08 1032.08 1032.16 1032.34 1032.46 1032.01 1031.70 1031.54 1031.46 1031.26 1030.96 1030.88 1030.72 1030.47 1030.17 1029.79 1029.24 1028.50 1028.36 1027.92 1027.55 1026.81 1026.38 1025.66 1024.85 1024.08 1023.29 1022.47 1021.40 1020.31 1019.12 1018.18 1017.05 1015.77 1014.54 1013.55 1012.52 1011.75 1010.77 1009.91
1032.12 1032.26 1032.37 1032.54 1032.70 1032.89 1032.85 1032.72 1032.54 1032.39 1032.12 1031.86 1031.72 1031.52 1031.34 1031.16 1031.06 1030.88 1030.22 1029.58 1029.01 1028.65 1028.18 1027.69 1027.26 1026.65 1026.06 1025.38 1024.58 1023.71 1022.85 1021.81 1020.73 1019.52 1018.44 1017.47 1016.69 1015.52 1014.45 1013.63 1012.68 1011.64 1011.00
1032.28 1032.39 1032.44 1032.45 1032.60 1032.74 1032.87 1033.03 1032.79 1032.52 1032.36 1032.03 1031.90 1031.70 1031.57 1031.42 1031.34 1031.29 1030.27 1029.65 1029.19 1028.54 1028.35 1028.02 1027.47 1027.01 1026.36 1025.50 1024.83 1024.01 1023.13 1022.13 1021.15 1020.04 1019.01 1018.17 1017.32 1016.46 1015.59 1014.61 1013.63 1012.85 1012.36
Thickness
5413 5419 5424 5432 5441 5446 5448 5453 5465 5479 5498 5509 5529 5549 5570 5599 5593 5589 5605 5632 5625 5632 5631 5646 5638 5642 5635 5635 5636 5637 5637 5631 5630 5639 5637 5639 5638 5634 5635 5634 5634 5633 5634
5405 5409 5415 5420 5425 5427 5428 5432 5438 5449 5467 5478 5496 5526 5551 5569 5581 5567 5586 5615 5620 5620 5621 5624 5624 5625 5623 5627 5628 5629 5631 5629 5625 5633 5632 5632 5633 5631 5632 5630 5631 5634 5634
5400 5403 5406 5409 5412 5408 5410 5409 5411 5421 5441 5455 5478 5508 5522 5541 5560 5556 5564 5563 5600 5608 5611 5605 5607 5615 5615 5617 5620 5624 5630 5626 5625 5624 5628 5628 5628 5627 5623 5624 5627 5628 5627
5398 5399 5398 5399 5394 5391 5394 5399 5399 5415 5428 5455 5473 5487 5502 5516 5534 5547 5551 5542 5558 5594 5586 5588 5590 5597 5593 5593 5598 5604 5613 5617 5616 5621 5622 5622 5622 5623 5621 5621 5617 5615 5616
5391 5392 5393 5392 5387 5384 5390 5395 5402 5415 5427 5444 5461 5474 5480 5499 5511 5538 5534 5502 5537 5550 5561 5574 5577 5575 5573 5587 5579 5583 5591 5598 5599 5614 5617 5617 5615 5616 5617 5616 5617 5614 5609
5384 5384 5384 5386 5388 5385 5386 5393 5401 5413 5426 5435 5443 5453 5474 5481 5486 5505 5526 5523 5507 5517 5544 5559 5565 5569 5561 5561 5556 5556 5566 5577 5581 5590 5603 5613 5613 5610 5608 5607 5607 5598 5603
5378 5377 5378 5378 5377 5381 5384 5387 5392 5398 5410 5421 5423 5437 5459 5478 5491 5494 5492 5502 5490 5501 5505 5531 5536 5537 5538 5532 5535 5546 5553 5560 5560 5574 5583 5596 5604 5602 5603 5599 5601 5595 5601
5372 5372 5371 5373 5371 5373 5375 5376 5379 5383 5393 5400 5402 5418 5441 5458 5481 5477 5475 5472 5470 5485 5496 5512 5520 5521 5521 5511 5523 5529 5540 5549 5558 5561 5572 5583 5585 5589 5593 5597 5594 5586 5576
5361 5362 5362 5365 5367 5368 5368 5364 5366 5365 5365 5371 5383 5401 5420 5448 5458 5456 5451 5466 5478 5482 5479 5482 5490 5493 5497 5498 5510 5514 5526 5538 5551 5556 5566 5572 5575 5577 5581 5585 5576 5574 5570
5345 5348 5353 5355 5355 5357 5356 5354 5355 5357 5361 5369 5386 5408 5420 5428 5420 5426 5429 5437 5443 5449 5457 5466 5463 5474 5474 5483 5493 5501 5518 5526 5535 5545 5553 5563 5568 5573 5576 5576 5580 5580 5563
5331 5335 5339 5342 5343 5342 5342 5341 5344 5350 5356 5374 5381 5388 5392 5396 5404 5412 5419 5424 5421 5424 5426 5433 5446 5451 5467 5473 5481 5486 5491 5503 5519 5527 5538 5551 5560 5564 5570 5568 5572 5572 5572
5317 5321 5326 5328 5330 5329 5330 5337 5350 5363 5373 5377 5373 5374 5381 5389 5392 5392 5401 5401 5404 5410 5411 5416 5424 5432 5443 5450 5458 5464 5477 5491 5499 5508 5518 5529 5537 5540 5548 5554 5557 5559 5567
5303 5309 5314 5320 5323 5327 5330 5333 5337 5341 5342 5344 5347 5355 5356 5362 5368 5371 5376 5382 5385 5384 5389 5394 5403 5411 5423 5434 5443 5448 5456 5467 5476 5485 5495 5502 5508 5517 5527 5537 5543 5543 5547
5283 5288 5294 5299 5305 5311 5313 5311 5311 5318 5323 5330 5341 5339 5339 5343 5347 5351 5357 5363 5366 5369 5373 5380 5385 5394 5399 5407 5414 5424 5433 5445 5454 5460 5469 5477 5487 5503 5511 5518 5524 5526 5531
5275 5269 5270 5277 5281 5288 5293 5299 5301 5302 5304 5305 5310 5311 5320 5325 5328 5331 5336 5338 5339 5342 5348 5359 5366 5373 5379 5389 5395 5402 5411 5424 5427 5437 5447 5453 5465 5476 5487 5495 5499 5505 5509
5272 5269 5263 5261 5261 5264 5267 5272 5277 5280 5287 5292 5296 5297 5297 5300 5303 5310 5316 5316 5321 5325 5331 5335 5338 5342 5349 5354 5364 5372 5385 5393 5397 5407 5420 5430 5439 5448 5462 5470 5478 5488 5493
5266 5264 5260 5257 5254 5250 5250 5253 5252 5256 5259 5263 5269 5274 5275 5275 5279 5283 5286 5290 5295 5299 5300 5303 5305 5311 5317 5324 5332 5343 5349 5357 5368 5382 5390 5403 5413 5420 5430 5443 5454 5460 5469
5263 5260 5255 5251 5246 5244 5241 5237 5232 5234 5238 5238 5239 5239 5241 5245 5249 5253 5257 5262 5267 5269 5268 5270 5274 5281 5287 5291 5296 5306 5316 5328 5339 5350 5363 5370 5380 5389 5399 5410 5417 5426 5437
5260 5256 5253 5251 5248 5245 5240 5236 5232 5228 5224 5220 5220 5222 5222 5222 5222 5223 5225 5227 5226 5229 5231 5236 5239 5243 5249 5259 5266 5273 5279 5291 5304 5317 5329 5337 5344 5355 5367 5378 5382 5390 5398
5255 5253 5250 5248 5245 5243 5241 5238 5234 5229 5224 5218 5213 5208 5207 5207 5207 5205 5203 5203 5203 5203 5204 5205 5210 5214 5218 5224 5232 5239 5249 5259 5271 5281 5291 5302 5310 5320 5332 5342 5349 5352 5361
5252 5249 5245 5242 5238 5235 5231 5228 5225 5221 5218 5215 5210 5204 5199 5195 5189 5186 5184 5181 5179 5178 5178 5181 5185 5190 5195 5199 5206 5213 5221 5228 5237 5248 5263 5275 5283 5292 5302 5308 5311 5318 5327
5248 5243 5240 5235 5231 5226 5222 5218 5213 5210 5206 5202 5197 5196 5191 5185 5180 5175 5170 5165 5161 5159 5158 5157 5158 5161 5165 5170 5177 5185 5194 5203 5214 5225 5237 5248 5258 5266 5274 5284 5289 5294 5302
5242 5236 5232 5227 5222 5217 5210 5207 5201 5195 5191 5186 5183 5179 5175 5168 5164 5160 5156 5153 5151 5146 5144 5141 5139 5139 5141 5144 5149 5155 5165 5176 5186 5198 5209 5220 5231 5242 5252 5260 5266 5270 5274
5234 5227 5223 5216 5210 5205 5197 5191 5188 5185 5180 5174 5167 5164 5158 5152 5147 5144 5140 5136 5133 5129 5127 5124 5122 5121 5123 5125 5129 5134 5141 5150 5162 5173 5184 5195 5207 5218 5228 5237 5244 5251 5256
5225 5218 5212 5206 5199 5192 5185 5181 5175 5169 5165 5159 5153 5148 5144 5138 5133 5127 5124 5120 5116 5113 5109 5106 5104 5103 5103 5105 5108 5112 5118 5126 5136 5148 5160 5172 5182 5193 5204 5213 5222 5232 5236
5220 5212 5205 5198 5191 5183 5176 5169 5164 5157 5152 5146 5139 5134 5128 5123 5118 5112 5108 5103 5098 5095 5091 5088 5086 5085 5085 5086 5087 5091 5097 5104 5112 5123 5134 5145 5157 5167 5178 5189 5199 5208 5214